GW0353 Weather Reports


time (UTC)temp
C
wind
direction
speed
KPH
gust
KPH
rain 1hr
cm
rain 24hr
cm
rain mn
cm
humidity
%
barometer
mb
20260904182057 18 115 6.4 17.7 0.00 0.00 0.00 32 1017.9
20260904181606 18 335 6.4 16.1 0.00 0.00 0.00 32 1017.9
20260904181058 18 125 6.4 22.5 0.00 0.00 0.00 34 1017.9
20260904180558 18 163 9.7 22.5 0.00 0.00 0.00 34 1017.9
20260904180109 18 120 9.7 17.7 0.00 0.00 0.00 33 1018.1
20260904175557 19 80 1.6 8.0 0.00 0.00 0.00 35 1018.1
20260904175059 20 79 3.2 6.4 0.00 0.00 0.00 37 1018.0
20260904174605 20 321 1.6 4.8 0.00 0.00 0.00 36 1018.1
20260904174058 20 0 0.0 4.8 0.00 0.00 0.00 37 1018.1
20260904173557 19 310 0.0 4.8 0.00 0.00 0.00 37 1017.9
20260904173104 18 0 1.6 4.8 0.00 0.00 0.00 38 1017.9
20260904172558 18 314 1.6 4.8 0.00 0.00 0.00 39 1017.9
20260904172059 17 0 0.0 9.7 0.00 0.00 0.00 41 1018.0
20260904171616 17 138 0.0 9.7 0.00 0.00 0.00 40 1018.0
20260904171102 17 37 1.6 8.0 0.00 0.00 0.00 40 1018.1
20260904170558 16 12 1.6 8.0 0.00 0.00 0.00 43 1018.0
20260904170109 16 83 1.6 6.4 0.00 0.00 0.00 44 1018.1
20260904165600 16 45 1.6 6.4 0.00 0.00 0.00 44 1018.1
20260904165101 16 51 0.0 4.8 0.00 0.00 0.00 46 1018.2
20260904164634 15 0 1.6 4.8 0.00 0.00 0.00 45 1018.2
20260904164058 15 103 1.6 6.4 0.00 0.00 0.00 45 1018.2
20260904163558 15 39 1.6 6.4 0.00 0.00 0.00 47 1018.2
20260904163103 15 174 3.2 6.4 0.00 0.00 0.00 48 1018.3
20260904162557 15 87 1.6 4.8 0.00 0.00 0.00 47 1018.3
20260904162057 15 63 0.0 4.8 0.00 0.00 0.00 49 1018.3
20260904161605 14 117 1.6 3.2 0.00 0.00 0.00 49 1018.3
20260904161057 13 104 0.0 4.8 0.00 0.00 0.00 50 1018.3
20260904160558 13 80 1.6 6.4 0.00 0.00 0.00 51 1018.5
20260904160112 13 115 3.2 6.4 0.00 0.00 0.00 52 1018.4
20260904155558 14 71 0.0 6.4 0.00 0.00 0.00 52 1018.5
20260904155057 13 0 1.6 6.4 0.00 0.00 0.00 52 1018.5
20260904154605 13 71 0.0 3.2 0.00 0.00 0.00 53 1018.6
20260904154057 13 0 0.0 6.4 0.00 0.00 0.00 56 1018.6
20260904153558 12 59 1.6 6.4 0.00 0.00 0.00 57 1018.5
20260904153113 12 127 1.6 3.2 0.00 0.00 0.00 58 1018.5
20260904152558 12 49 0.0 4.8 0.00 0.00 0.00 58 1018.5
20260904152057 12 94 1.6 4.8 0.00 0.00 0.00 59 1018.6
20260904151604 11 58 0.0 3.2 0.00 0.00 0.00 60 1018.6
20260904151057 11 58 1.6 3.2 0.00 0.00 0.00 61 1018.5
20260904150558 11 0 0.0 3.2 0.00 0.00 0.00 63 1018.6
20260904150107 10 67 1.6 4.8 0.00 0.00 0.00 63 1018.5
20260904145558 10 0 1.6 4.8 0.00 0.00 0.00 63 1018.4
20260904145059 10 56 0.0 1.6 0.00 0.00 0.00 64 1018.4
20260904144619 10 0 0.0 8.0 0.00 0.00 0.00 66 1018.5
20260904144058 8 0 1.6 8.0 0.00 0.00 0.00 67 1018.4
20260904143558 8 51 1.6 8.0 0.00 0.00 0.00 69 1018.3
20260904143106 8 82 3.2 8.0 0.00 0.00 0.00 70 1018.3
20260904142558 7 46 4.8 6.4 0.00 0.00 0.00 70 1018.2
20260904142101 7 0 0.0 3.2 0.00 0.00 0.00 71 1018.2
20260904141606 7 115 0.0 4.8 0.00 0.00 0.00 70 1018.1
20260904141059 7 82 0.0 6.4 0.00 0.00 0.00 71 1018.2
20260904140600 7 101 3.2 6.4 0.00 0.00 0.00 72 1018.1
20260904140110 7 104 1.6 4.8 0.00 0.00 0.00 73 1018.1
20260904135559 7 0 1.6 4.8 0.00 0.00 0.00 74 1018.1
20260904135100 6 131 0.0 3.2 0.00 0.00 0.00 77 1017.9
20260904134604 6 0 0.0 4.8 0.00 0.00 0.00 76 1018.0
20260904134058 6 153 0.0 4.8 0.00 0.00 0.00 76 1018.0
20260904133600 6 129 3.2 4.8 0.00 0.00 0.00 77 1018.0
20260904133106 6 163 0.0 6.4 0.00 0.00 0.00 74 1017.9
20260904132559 7 0 0.0 6.4 0.00 0.00 0.00 75 1018.1
20260904132059 6 103 0.0 6.4 0.00 0.00 0.00 76 1017.9
20260904131612 6 0 3.2 6.4 0.00 0.00 0.00 76 1017.8
20260904131100 6 157 0.0 3.2 0.00 0.00 0.00 76 1017.9
20260904130558 6 0 0.0 4.8 0.00 0.00 0.00 79 1017.8
20260904130109 5 0 0.0 4.8 0.00 0.00 0.00 76 1017.8
20260904125559 5 0 1.6 6.4 0.00 0.00 0.00 81 1017.7
20260904125059 5 157 0.0 6.4 0.00 0.00 0.00 79 1017.5
20260904124607 5 0 3.2 6.4 0.00 0.00 0.00 80 1017.6
20260904124059 5 0 0.0 4.8 0.00 0.00 0.00 78 1017.5
20260904123558 5 232 0.0 3.2 0.00 0.00 0.00 81 1017.4
20260904123105 5 0 0.0 3.2 0.00 0.00 0.00 80 1017.5
20260904122558 5 0 0.0 4.8 0.00 0.00 0.00 79 1017.5
20260904122101 5 0 0.0 4.8 0.00 0.00 0.00 79 1017.4
20260904121606 5 0 0.0 4.8 0.00 0.00 0.00 80 1017.4
20260904121058 5 0 0.0 3.2 0.00 0.00 0.00 80 1017.4
20260904120559 5 0 0.0 3.2 0.00 0.00 0.00 79 1017.5
20260904120108 5 0 0.0 3.2 0.00 0.00 0.00 78 1017.4
20260904115559 5 0 0.0 3.2 0.00 0.00 0.00 78 1017.6
20260904115059 5 211 0.0 6.4 0.00 0.00 0.00 78 1017.5
20260904114608 5 0 0.0 6.4 0.00 0.00 0.00 79 1017.6
20260904114059 5 181 3.2 6.4 0.00 0.00 0.00 79 1017.8
20260904113558 5 113 0.0 6.4 0.00 0.00 0.00 79 1017.8
20260904113106 5 233 1.6 6.4 0.00 0.00 0.00 80 1017.7
20260904112559 5 0 0.0 3.2 0.00 0.00 0.00 80 1017.6
20260904112058 5 0 1.6 4.8 0.00 0.00 0.00 78 1017.7
20260904111606 5 0 1.6 4.8 0.00 0.00 0.00 77 1017.6
20260904111058 5 152 0.0 4.8 0.00 0.00 0.00 79 1017.7
20260904110558 5 0 1.6 4.8 0.00 0.00 0.00 80 1017.6
20260904110108 5 0 0.0 4.8 0.00 0.00 0.00 78 1017.7
20260904105602 5 162 1.6 4.8 0.00 0.00 0.00 77 1017.7
20260904105059 5 251 1.6 4.8 0.00 0.00 0.00 79 1017.7
20260904104608 5 165 0.0 4.8 0.00 0.00 0.00 78 1017.7
20260904104059 5 0 0.0 4.8 0.00 0.00 0.00 79 1017.9
20260904103558 5 172 0.0 4.8 0.00 0.00 0.00 79 1017.7
20260904103103 5 0 1.6 3.2 0.00 0.00 0.00 79 1017.7
20260904102559 5 174 0.0 3.2 0.00 0.00 0.00 79 1017.7
20260904102102 5 160 1.6 6.4 0.00 0.00 0.00 78 1017.8
20260904101611 5 0 0.0 6.4 0.00 0.00 0.00 78 1017.7
20260904101059 5 115 1.6 6.4 0.00 0.00 0.00 77 1017.7
20260904100558 6 233 0.0 3.2 0.00 0.00 0.00 75 1017.9
20260904100111 6 240 0.0 1.6 0.00 0.00 0.00 78 1017.7
20260904095559 5 0 0.0 4.8 0.00 0.00 0.00 77 1017.8
20260904095058 5 0 1.6 4.8 0.00 0.00 0.00 78 1017.8
20260904094611 6 187 0.0 1.6 0.00 0.00 0.00 76 1017.7
20260904094059 6 197 0.0 11.3 0.00 0.00 0.00 77 1017.8
20260904093559 5 0 4.8 11.3 0.00 0.00 0.00 77 1017.8
20260904093117 6 241 0.0 1.6 0.00 0.00 0.00 75 1017.7
20260904092558 6 0 0.0 0.0 0.00 0.00 0.00 76 1017.9
20260904092058 6 0 0.0 4.8 0.00 0.00 0.00 76 1017.9
20260904091616 6 0 1.6 4.8 0.00 0.00 0.00 74 1017.9
20260904091058 6 0 0.0 4.8 0.00 0.00 0.00 75 1017.9
20260904090558 6 219 0.0 4.8 0.00 0.00 0.00 75 1017.9
20260904090106 6 167 0.0 3.2 0.00 0.00 0.00 73 1018.2
20260904085556 7 0 0.0 4.8 0.00 0.00 0.00 73 1017.9
20260904085058 7 0 0.0 8.0 0.00 0.00 0.00 73 1018.2
20260904084606 7 0 0.0 8.0 0.00 0.00 0.00 74 1018.4
20260904084059 6 124 1.6 8.0 0.00 0.00 0.00 73 1018.3
20260904083557 6 0 0.0 3.2 0.00 0.00 0.00 73 1018.3
20260904083106 6 165 0.0 3.2 0.00 0.00 0.00 72 1018.4
20260904082559 6 0 0.0 3.2 0.00 0.00 0.00 73 1018.3
20260904082057 7 0 0.0 3.2 0.00 0.00 0.00 71 1018.2
20260904081611 7 0 1.6 6.4 0.00 0.00 0.00 71 1018.1
20260904081056 7 213 0.0 9.7 0.00 0.00 0.00 73 1018.3
20260904080559 7 119 4.8 9.7 0.00 0.00 0.00 71 1018.2
20260904080104 7 186 0.0 1.6 0.00 0.00 0.00 70 1018.2
20260904075557 7 0 0.0 3.2 0.00 0.00 0.00 70 1018.2
20260904075057 7 0 0.0 3.2 0.00 0.00 0.00 68 1018.3
20260904074604 8 0 0.0 4.8 0.00 0.00 0.00 67 1018.2
20260904074059 8 134 1.6 4.8 0.00 0.00 0.00 66 1018.4
20260904073557 8 0 0.0 4.8 0.00 0.00 0.00 66 1018.2
20260904073127 8 0 0.0 11.3 0.00 0.00 0.00 65 1018.3
20260904072556 9 149 1.6 11.3 0.00 0.00 0.00 63 1018.3
20260904072056 9 90 6.4 14.5 0.00 0.00 0.00 63 1018.1
20260904071606 9 84 6.4 14.5 0.00 0.00 0.00 63 1018.2
20260904071057 9 71 9.7 14.5 0.00 0.00 0.00 65 1018.4
20260904070600 9 104 3.2 12.9 0.00 0.00 0.00 64 1018.2
20260904070108 9 59 6.4 11.3 0.00 0.00 0.00 63 1018.2
20260904065557 9 107 6.4 12.9 0.00 0.00 0.00 63 1018.3
20260904065057 9 124 3.2 17.7 0.00 0.00 0.00 63 1018.2
20260904064608 10 82 8.0 17.7 0.00 0.00 0.00 63 1018.2
20260904064100 9 86 8.0 17.7 0.00 0.00 0.00 64 1018.3
20260904063559 9 158 6.4 14.5 0.00 0.00 0.00 63 1018.2
20260904063110 9 93 6.4 12.9 0.00 0.00 0.00 63 1018.1
20260904062557 10 122 6.4 14.5 0.00 0.00 0.00 63 1018.2
20260904062057 10 98 9.7 14.5 0.00 0.00 0.00 63 1017.9
20260904061605 10 68 6.4 14.5 0.00 0.00 0.00 63 1017.8
20260904061057 10 115 6.4 14.5 0.00 0.00 0.00 63 1017.9
20260904060600 10 131 6.4 14.5 0.00 0.00 0.00 64 1017.9
20260904060131 10 127 1.6 11.3 0.00 0.00 0.00 62 1017.9
20260904055640 10 21 3.2 19.3 0.00 0.00 0.00 62 1017.8
20260904055058 10 110 3.2 19.3 0.00 0.00 0.00 62 1017.9
20260904054637 10 127 8.0 17.7 0.00 0.00 0.00 63 1017.8
20260904054100 10 110 6.4 17.7 0.00 0.00 0.00 63 1018.0
20260904053559 10 42 6.4 14.5 0.00 0.00 0.00 65 1018.1
20260904053109 10 66 1.6 9.7 0.00 0.00 0.00 66 1018.1
20260904052559 10 126 0.0 9.7 0.00 0.00 0.00 66 1018.1
20260904052059 10 79 6.4 9.7 0.00 0.00 0.00 67 1018.0
20260904051607 10 37 3.2 8.0 0.00 0.00 0.00 66 1018.1
20260904051101 10 308 3.2 9.7 0.00 0.00 0.00 67 1017.9
20260904050559 10 0 3.2 9.7 0.00 0.00 0.00 67 1018.2
20260904045559 10 30 0.0 8.0 0.00 0.00 0.00 66 1018.3
20260904045100 10 0 1.6 14.5 0.00 0.00 0.00 66 1018.4
20260904044606 10 312 4.8 14.5 0.00 0.00 0.00 66 1018.2
20260904044100 10 181 1.6 14.5 0.00 0.00 0.00 65 1018.4
20260904043559 10 122 4.8 11.3 0.00 0.00 0.00 66 1018.2
20260904043107 10 0 1.6 4.8 0.00 0.00 0.00 67 1018.3
20260904042559 10 0 0.0 1.6 0.00 0.00 0.00 66 1018.4
20260904042100 10 0 0.0 4.8 0.00 0.00 0.00 66 1018.4
20260904041609 11 0 1.6 4.8 0.00 0.00 0.00 65 1018.4
20260904041059 11 0 0.0 3.2 0.00 0.00 0.00 63 1018.4
20260904040559 11 0 0.0 12.9 0.00 0.00 0.00 64 1018.3
20260904040109 11 0 0.0 12.9 0.00 0.00 0.00 63 1018.2
20260904035600 11 359 1.6 12.9 0.00 0.00 0.00 63 1018.3
20260904035058 12 0 0.0 6.4 0.00 0.00 0.00 61 1018.3
20260904034603 12 0 0.0 6.4 0.00 0.00 0.00 60 1018.2
20260904034101 12 119 0.0 9.7 0.00 0.00 0.00 59 1018.0
20260904033602 12 0 3.2 9.7 0.00 0.00 0.00 58 1017.9
20260904033108 12 37 3.2 9.7 0.00 0.00 0.00 60 1017.9
20260904032600 12 358 3.2 9.7 0.00 0.00 0.00 59 1017.9
20260904032059 12 52 3.2 14.5 0.00 0.00 0.00 56 1017.9
20260904031607 12 158 1.6 14.5 0.00 0.00 0.00 55 1017.9
20260904031057 12 63 3.2 14.5 0.00 0.00 0.00 55 1017.8
20260904030558 13 89 4.8 14.5 0.00 0.00 0.00 55 1017.7
20260904030104 13 37 3.2 9.7 0.00 0.00 0.00 53 1017.9
20260904025557 13 98 1.6 9.7 0.00 0.00 0.00 55 1017.8
20260904025056 13 33 1.6 17.7 0.00 0.00 0.00 56 1017.6
20260904024604 13 218 8.0 27.4 0.00 0.00 0.00 54 1017.7
20260904024100 13 88 6.4 27.4 0.00 0.00 0.00 52 1017.5
20260904023557 14 58 16.1 27.4 0.00 0.00 0.00 49 1017.4
20260904023108 15 53 4.8 12.9 0.00 0.00 0.00 52 1017.4
20260904022557 15 33 6.4 20.9 0.00 0.00 0.00 52 1017.3
20260904022057 15 12 6.4 20.9 0.00 0.00 0.00 51 1017.3
20260904021608 16 56 3.2 24.1 0.00 0.00 0.00 49 1017.1
20260904021057 16 163 9.7 24.1 0.00 0.00 0.00 44 1017.0
20260904020558 16 7 8.0 20.9 0.00 0.00 0.00 43 1017.1
20260904020106 17 79 11.3 24.1 0.00 0.00 0.00 42 1016.8
20260904015557 17 53 11.3 24.1 0.00 0.00 0.00 39 1016.8
20260904015057 17 56 6.4 12.9 0.00 0.00 0.00 38 1016.6
20260904014621 18 70 0.0 6.4 0.00 0.00 0.00 36 1016.7
20260904014059 18 218 0.0 4.8 0.00 0.00 0.00 35 1016.5
20260904013557 19 0 0.0 4.8 0.00 0.00 0.00 34 1016.5
20260904013122 19 255 0.0 9.7 0.00 0.00 0.00 33 1016.5
20260904012558 19 0 1.6 19.3 0.00 0.00 0.00 34 1016.4
20260904012057 19 163 3.2 19.3 0.00 0.00 0.00 36 1016.6
20260904011606 20 185 4.8 27.4 0.00 0.00 0.00 35 1016.7
20260904011057 20 131 14.5 27.4 0.00 0.00 0.00 26 1016.8
20260904010557 20 173 6.4 22.5 0.00 0.00 0.00 32 1016.8
20260904010116 20 248 6.4 20.9 0.00 0.00 0.00 30 1016.9
20260904005557 21 244 4.8 14.5 0.00 0.00 0.00 31 1017.0
20260904005100 21 232 3.2 20.9 0.00 0.00 0.00 33 1016.9
20260904004625 21 229 4.8 20.9 0.00 0.00 0.00 31 1017.0
20260904004058 21 161 4.8 17.7 0.00 0.00 0.00 30 1017.0
20260904003557 21 212 6.4 20.9 0.00 0.00 0.00 30 1017.1
20260904003133 21 323 6.4 20.9 0.00 0.00 0.00 32 1017.1
20260904002600 21 259 6.4 16.1 0.00 0.00 0.00 29 1016.9
20260904002057 21 197 4.8 16.1 0.00 0.00 0.00 30 1017.1
20260904001602 21 313 9.7 25.7 0.00 0.00 0.00 29 1017.2
20260904001057 20 215 12.9 25.7 0.00 0.00 0.00 30 1017.0
20260904000557 21 139 12.9 27.4 0.00 0.00 0.00 29 1017.2
20260904000106 21 161 11.3 27.4 0.00 0.00 0.00 30 1017.2
20260903235557 21 167 6.4 17.7 0.00 0.00 0.00 31 1017.2
20260903235059 21 235 8.0 19.3 0.00 0.00 0.00 30 1017.1
20260903234607 21 231 6.4 20.9 0.00 0.00 0.00 29 1017.2
20260903234059 21 190 9.7 22.5 0.00 0.00 0.00 30 1017.1
20260903233602 21 187 6.4 22.5 0.00 0.00 0.00 31 1017.1
20260903233107 21 167 11.3 29.0 0.00 0.00 0.00 31 1017.1
20260903232559 21 153 16.1 30.6 0.00 0.00 0.00 30 1017.0
20260903232059 21 139 11.3 30.6 0.00 0.00 0.00 28 1017.1
20260903231611 21 160 16.1 30.6 0.00 0.00 0.00 29 1017.3
20260903231058 22 159 12.9 27.4 0.00 0.00 0.00 28 1017.3
20260903230558 22 121 9.7 20.9 0.00 0.00 0.00 29 1017.2
20260903230106 22 247 6.4 19.3 0.00 0.00 0.00 28 1017.2
20260903225558 22 151 4.8 17.7 0.00 0.00 0.00 28 1017.3
20260903225059 23 160 4.8 17.7 0.00 0.00 0.00 27 1017.4
20260903224609 23 290 3.2 17.7 0.00 0.00 0.00 28 1017.4
20260903224058 23 150 0.0 6.4 0.00 0.00 0.00 26 1017.4
20260903223602 23 252 1.6 6.4 0.00 0.00 0.00 28 1017.3
20260903223119 22 323 1.6 6.4 0.00 0.00 0.00 28 1017.4
20260903222559 22 18 1.6 6.4 0.00 0.00 0.00 25 1017.4
20260903222059 22 39 1.6 12.9 0.00 0.00 0.00 26 1017.7
20260903221621 22 250 3.2 12.9 0.00 0.00 0.00 26 1017.8
20260903221058 22 61 4.8 12.9 0.00 0.00 0.00 25 1017.7
20260903220558 22 342 4.8 9.7 0.00 0.00 0.00 25 1017.9
20260903220105 22 9 3.2 12.9 0.00 0.00 0.00 25 1017.8
20260903215558 22 0 6.4 19.3 0.00 0.00 0.00 25 1017.8
20260903215058 22 309 6.4 19.3 0.00 0.00 0.00 25 1017.8
20260903214603 22 86 1.6 16.1 0.00 0.00 0.00 26 1017.8
20260903214059 21 42 8.0 22.5 0.00 0.00 0.00 26 1017.9
20260903213601 21 123 6.4 22.5 0.00 0.00 0.00 25 1017.9
20260903213107 21 54 9.7 22.5 0.00 0.00 0.00 25 1017.8
20260903212559 21 139 14.5 22.5 0.00 0.00 0.00 26 1017.9
20260903212059 21 162 11.3 20.9 0.00 0.00 0.00 26 1017.9
20260903211612 21 97 6.4 20.9 0.00 0.00 0.00 25 1017.7
20260903211058 21 214 9.7 20.9 0.00 0.00 0.00 27 1017.9
20260903210559 21 130 6.4 19.3 0.00 0.00 0.00 25 1017.9
20260903210101 21 93 8.0 24.1 0.00 0.00 0.00 26 1018.1
20260903205559 20 53 9.7 24.1 0.00 0.00 0.00 26 1018.2
20260903205059 20 86 9.7 24.1 0.00 0.00 0.00 27 1018.1
20260903204605 20 101 11.3 22.5 0.00 0.00 0.00 27 1018.1
20260903204058 20 108 9.7 27.4 0.00 0.00 0.00 27 1018.2
20260903203558 20 179 11.3 27.4 0.00 0.00 0.00 27 1018.2
20260903203107 20 148 9.7 27.4 0.00 0.00 0.00 26 1018.2
20260903202559 20 113 11.3 25.7 0.00 0.00 0.00 26 1018.2
20260903202059 20 143 9.7 25.7 0.00 0.00 0.00 27 1018.2
20260903201606 20 350 8.0 32.2 0.00 0.00 0.00 26 1018.4
20260903201058 20 51 9.7 32.2 0.00 0.00 0.00 26 1018.4
20260903200558 20 82 11.3 22.5 0.00 0.00 0.00 27 1018.4
20260903200105 20 51 11.3 27.4 0.00 0.00 0.00 27 1018.5
20260903195558 20 121 9.7 27.4 0.00 0.00 0.00 27 1018.7
20260903195058 20 145 14.5 27.4 0.00 0.00 0.00 27 1018.8
20260903194603 20 101 12.9 24.1 0.00 0.00 0.00 27 1018.9
20260903194058 20 118 11.3 20.9 0.00 0.00 0.00 27 1018.9
20260903193558 20 41 6.4 17.7 0.00 0.00 0.00 27 1018.9
20260903193109 20 95 8.0 17.7 0.00 0.00 0.00 27 1018.9
20260903192559 20 78 11.3 17.7 0.00 0.00 0.00 27 1019.0
20260903192058 20 149 4.8 17.7 0.00 0.00 0.00 28 1019.2
20260903191605 20 114 6.4 29.0 0.00 0.00 0.00 27 1019.3
20260903191059 20 112 11.3 29.0 0.00 0.00 0.00 27 1019.3
20260903190559 20 70 8.0 19.3 0.00 0.00 0.00 27 1019.4
20260903190111 20 101 6.4 19.3 0.00 0.00 0.00 27 1019.3
20260903185558 20 99 6.4 19.3 0.00 0.00 0.00 28 1019.4
20260903185058 20 101 8.0 19.3 0.00 0.00 0.00 27 1019.5
20260903184607 21 114 4.8 11.3 0.00 0.00 0.00 26 1019.5
20260903184059 21 8 4.8 9.7 0.00 0.00 0.00 26 1019.5
20260903183558 21 323 3.2 6.4 0.00 0.00 0.00 25 1019.6
20260903183108 22 63 1.6 6.4 0.00 0.00 0.00 27 1019.6
20260903182559 21 328 1.6 8.0 0.00 0.00 0.00 26 1019.8